Location: Holbach
(51.5399°N, 10.6036°E)
Time: 03:25:21
(UTC+00:00)

Cosmos 1437 - Pass Details

Date: 18 September 2020
Orbit: 366 x 369 km, 81.2° (Epoch: 22 October)

Event Time Altitude Azimuth Distance (km) Brightness Sun altitude
Rises 18:08:40 0° 346° (NNW) 2,256 6.8 -7.7°
Reaches altitude 10° 18:10:40 10° 345° (NNW) 1,399 5.8 -8.0°
Maximum altitude 18:13:42 76° 259° (W) 394 2.7 -8.4°
Drops below altitude 10° 18:16:42 10° 173° (S) 1,386 5.2 -8.9°
Sets 18:18:40 0° 172° (S) 2,231 6.2 -9.2°
